Hourly Data Report for October 13, 2013

All times are specified in Local Standard Time (LST). Add 1 hour to adjust for Daylight Saving Time where and when it is observed.

TORONTO INTL A
ONTARIO

43°40'36.000" N
79°37'50.000" W
173.40 m
6158731
71624
YYZ

Related Data

No related data is available for this station

Download Data

Hourly Data (October 2013)
Hourly Data Report for October 13, 2013
Temp Definition
°C
Dew Point Temp Definition
°C
Rel Hum Definition
%
Wind Dir Definition
10's deg

Wind Spd Definition
km/h
Visibility Definition
km
Stn Press Definition
kPa
Hmdx Definition


Wind Chill Definition


Weather Definition


TIME
00:00 Legend Double Dagger 15.0 10.5 74 15 5 24.1 100.02     LegendNANA
01:00 Legend Double Dagger 14.6 10.7 77 16 3 24.1 100.02     Mostly Cloudy
02:00 Legend Double Dagger 16.5 12.1 75 17 5 24.1 100.06     LegendNANA
03:00 Legend Double Dagger 15.9 12.1 78 14 3 24.1 100.07     LegendNANA
04:00 Legend Double Dagger 15.7 12.1 79 16 3 24.1 100.11     Cloudy
05:00 Legend Double Dagger 15.9 12.3 79 13 8 24.1 100.16     LegendNANA
06:00 Legend Double Dagger 15.8 13.0 83 14 9 24.1 100.20     LegendNANA
07:00 Legend Double Dagger 15.2 13.8 91 12 9 19.3 100.22     Cloudy
08:00 Legend Double Dagger 15.6 14.3 92 15 8 24.1 100.27     Rain Showers
09:00 Legend Double Dagger 16.0 14.9 93 15 8 24.1 100.31     LegendNANA
10:00 Legend Double Dagger 15.7 13.7 88 13 9 24.1 100.33     Rain Showers
11:00 Legend Double Dagger 16.1 13.8 86 13 9 24.1 100.32     LegendNANA
12:00 Legend Double Dagger 16.2 13.7 85 13 7 24.1 100.31     LegendNANA
13:00 Legend Double Dagger 16.0 13.9 87 10 7 24.1 100.27     Rain Showers
14:00 Legend Double Dagger 15.4 14.5 94 9 6 6.4 100.25     Rain Showers
15:00 Legend Double Dagger 15.5 14.6 94 12 4 6.4 100.27     Rain Showers,Fog
16:00 Legend Double Dagger 15.8 15.0 95 8 3 6.4 100.25     Drizzle,Fog
17:00 Legend Double Dagger 15.9 15.1 95 17 2 6.4 100.27     Drizzle,Fog
18:00 Legend Double Dagger 16.0 15.4 96 15 5 6.4 100.33     Drizzle,Fog
19:00 Legend Double Dagger 15.9 14.8 93 34 13 8.1 100.35     Fog
20:00 Legend Double Dagger 15.4 12.4 82 35 15 16.1 100.42     LegendNANA
21:00 Legend Double Dagger 14.3 11.8 85 33 17 16.1 100.46     LegendNANA
22:00 Legend Double Dagger 13.0 9.7 80 33 22 19.3 100.50     Mostly Cloudy
23:00 Legend Double Dagger 11.6 8.7 82 33 18 24.1 100.51     LegendNANA

Notes on Data Quality.

Legend

  • E = Estimated
  • M = Missing
  • NA = Not Available
  • ‡ = Partner data that is not subject to review by the National Climate Archives
Date modified: